OneWeb SL0444

operational
NORAD ID: 51638 Int'l Des: 2022-012 Owner: ONEWEBN Country: UK Constellation: oneweb
LEOCIRCULARPOLARONEWEB_TYPE

关于 OneWeb SL0444

正在加载描述...

实时位置

正在加载3D地球...

即将过境

高度历史

Altitude vs Time

uPlot chart will show altitude changes over time

两行轨道根数

1 51638U 22012S 25260.57608017 -.00000168 00000-0 -51777-3 0 9996
2 51638 87.8740 90.6383 0001592 82.4231 277.7077 13.10376161173631
Epoch: Sep 17, 2025 • Age: 17 hours

当前状态

高度 1223.9 km
速度 7.24 km/s
星下点 9.15°N, 164.87°E
发射日期 Feb 10, 2022
运行时间 3.6 years
类型 internet

技术详情

分类 Payload
质量 148.00 kg
干质量 140.00 kg
总质量 148.00 kg
长度 1.30 m
直径 1.00 m
跨度 5.00 m
形状 Trapezoid+2 pan
制造商 ONEWUS
平台类型 ARROW
阶段状态 In Orbit
所有者/国家 ONEWEBN/UK

大型星座

Loading constellations...